Theta_e
319 319 318 318 318 319 319 319 319 318 317 318 318 318 318 319 319 318 318 317 317 316 316 316 317 317 317 317 317 317 317 317 318 319 317 315 313 312 312 312 311 310
315 315 315 315 315 316 315 316 316 315 315 316 316 316 317 316 317 316 316 315 316 315 315 315 315 315 315 315 315 315 315 315 315 317 317 316 314 313 312 312 312 311
313 313 313 313 313 314 313 314 313 313 313 314 314 314 314 314 314 314 314 314 313 314 314 314 314 314 314 314 314 313 313 313 313 314 314 314 314 313 313 313 312 311
311 311 311 311 312 312 312 311 312 312 312 312 312 313 312 313 312 312 312 310 312 312 312 313 313 313 313 312 312 311 312 312 312 313 312 312 313 312 312 311 311 310
310 310 310 310 310 310 310 310 310 311 310 311 311 311 311 311 311 310 310 310 310 310 310 311 311 311 311 311 311 310 310 310 311 311 310 309 310 311 311 310 309 308
308 308 308 308 308 308 309 308 309 308 308 309 309 309 309 308 308 308 308 308 308 309 308 309 309 309 310 309 309 309 309 308 309 309 308 308 308 309 309 309 308 307
306 306 306 306 307 306 306 306 306 306 306 306 305 306 306 306 306 307 307 307 306 306 307 307 307 307 308 308 307 307 307 307 307 307 306 306 306 306 307 307 306 305
303 304 304 305 305 304 303 303 303 303 303 303 304 305 305 304 304 305 305 305 305 305 305 305 305 305 306 306 305 305 305 305 305 304 304 304 305 304 304 304 304 303
302 302 302 302 302 301 301 301 301 302 301 301 302 302 303 303 303 303 303 303 303 303 303 303 303 303 303 303 303 303 302 302 303 302 302 302 302 302 302 302 301 300
300 300 300 300 300 299 299 299 300 300 300 300 300 301 301 302 302 302 301 301 301 301 301 301 301 301 300 300 300 300 300 300 301 301 301 301 301 301 301 300 299 298
298 298 298 298 298 298 298 298 298 298 299 299 299 299 300 300 300 300 300 300 301 300 301 300 301 300 300 300 301 301 300 300 300 300 300 300 300 300 297 299 298 298
297 297 297 296 297 297 297 297 297 297 297 298 297 297 298 299 299 298 299 298 299 299 299 300 300 300 299 299 300 300 300 300 300 300 299 299 299 298 298 298 298 298
296 296 296 296 296 296 297 296 296 296 296 296 296 297 297 297 297 297 298 298 298 298 298 298 299 299 299 300 300 300 300 299 299 299 298 298 298 298 298 298 298 298
295 295 295 295 296 296 296 295 296 295 295 296 296 296 295 295 295 295 296 296 297 297 298 298 297 297 297 298 298 298 298 298 298 297 297 297 297 297 297 297 297 297
295 295 295 295 294 294 294 293 294 294 294 294 294 294 295 295 295 295 295 295 295 296 296 297 298 298 298 298 297 296 296 295 296 296 296 296 296 296 296 296 297 297
294 293 294 293 293 292 292 292 292 292 292 292 292 293 293 293 293 293 294 294 294 295 295 297 297 298 295 292 293 294 294 294 294 294 294 294 294 294 295 295 296 296
292 292 292 292 291 291 291 290 290 291 291 291 291 291 291 292 292 292 293 293 293 293 293 294 295 296 292 294 294 293 293 292 292 293 293 294 294 294 294 294 295 296
291 291 291 291 290 290 290 290 290 289 290 290 290 290 290 291 291 291 292 292 293 292 292 293 293 291 293 293 293 293 292 291 292 292 292 292 293 293 293 294 294 294
290 290 290 290 289 289 289 287 288 287 287 288 288 289 290 290 290 290 290 290 291 291 290 291 291 291 292 292 292 292 292 291 291 291 291 291 292 292 292 293 293 293
289 290 289 289 288 288 288 287 287 287 287 288 288 288 288 288 288 288 289 289 289 289 289 289 290 290 291 291 291 291 292 291 291 290 290 291 291 291 291 291 292 292
288 288 287 287 287 286 286 286 286 286 286 286 287 287 287 287 287 287 288 287 288 288 288 288 289 290 291 291 291 291 291 291 290 290 290 290 290 291 291 291 291 292
287 286 286 286 285 285 285 285 285 285 285 286 286 286 286 287 287 287 286 286 287 287 287 287 288 289 290 290 290 290 291 289 288 288 289 289 289 290 290 291 291 291
286 285 284 284 284 284 284 284 284 284 285 286 285 285 285 285 285 286 286 286 286 286 285 286 286 288 288 289 289 290 289 287 287 287 287 287 288 289 289 290 290 290
284 283 282 282 282 282 282 282 283 284 284 285 284 283 283 284 285 286 286 286 285 285 285 285 285 286 288 288 289 289 288 287 287 287 286 287 287 288 289 289 289 288
283 282 281 280 280 281 281 281 281 282 283 283 283 283 283 285 285 285 284 284 285 285 285 285 285 286 287 288 288 289 288 287 287 286 286 286 286 286 288 288 288 288
281 281 280 279 279 279 280 280 281 281 281 281 281 282 283 283 283 283 282 283 284 284 285 285 285 285 286 288 288 289 289 287 286 286 285 285 286 286 286 286 287 287
Wind_Speed
4 3 3 3 3 3 2 3 2 2 3 4 4 4 3 3 4 4 5 5 5 5 5 6 6 6 5 7 8 7 8 8 7 6 6 6 7 9 10 11 10 9
3 3 2 2 2 1 1 1 2 3 3 3 3 4 3 3 3 3 4 5 5 6 6 6 6 6 6 7 6 6 7 7 8 3 5 7 6 7 9 10 11 11
2 2 2 2 1 1 0 0 1 1 2 2 3 3 3 3 3 3 3 4 4 4 5 6 6 6 5 5 6 6 6 6 7 6 6 6 6 7 8 8 7 8
3 2 2 1 1 1 1 1 1 1 1 2 2 2 3 3 3 3 3 3 4 4 4 5 6 6 5 5 5 6 6 7 6 6 6 6 6 6 7 5 7 7
3 3 2 2 2 1 1 2 1 1 1 2 2 3 3 3 3 2 2 2 3 3 4 4 5 5 5 6 6 6 6 6 6 5 5 6 6 6 6 6 6 7
4 3 3 3 2 2 2 3 3 3 2 2 3 3 3 3 3 3 3 3 3 3 4 4 5 5 4 4 5 6 6 5 5 5 6 7 6 6 5 6 7 8
5 4 5 4 4 4 4 4 4 4 4 3 3 2 2 3 3 3 3 3 3 3 4 4 5 5 4 4 5 6 6 6 6 6 7 7 6 8 7 7 8 9
6 5 5 5 6 6 6 5 5 4 4 3 2 2 3 3 3 3 3 3 3 3 4 4 5 5 5 5 5 6 7 5 6 7 8 8 7 8 8 7 8 9
6 6 6 7 8 6 6 5 4 3 3 3 3 3 3 3 3 3 3 3 3 3 4 4 4 4 4 5 5 6 7 7 7 8 9 9 8 9 9 8 8 9
7 7 8 8 7 5 5 4 3 3 4 4 4 3 3 3 3 3 3 3 3 3 3 3 4 4 4 5 6 6 7 8 7 8 8 8 9 9 9 9 9 9
9 8 7 6 5 4 4 4 3 3 3 4 3 3 3 3 3 3 3 3 3 4 4 4 4 4 5 5 5 5 6 7 7 7 7 9 9 9 9 9 10 10
7 6 6 5 4 4 4 3 3 3 4 3 3 4 3 3 3 3 3 4 4 4 4 4 4 4 5 5 6 6 6 6 6 7 7 7 8 8 9 9 9 10
6 6 5 5 4 4 3 3 3 3 3 4 3 2 3 3 2 2 2 3 4 4 4 4 4 4 5 5 5 6 6 6 6 7 7 7 7 8 8 9 9 10
6 5 5 5 4 3 4 4 3 4 3 3 2 2 2 2 2 3 3 3 3 4 4 4 4 4 5 5 6 6 6 6 6 7 8 8 8 8 9 9 10 10
5 4 4 4 4 4 5 5 5 5 5 4 4 4 4 3 4 4 4 4 3 3 4 3 4 4 3 3 5 7 7 8 8 8 9 10 10 10 10 10 10 10
5 4 4 5 6 7 7 6 6 6 5 5 5 4 4 4 4 4 4 4 5 5 4 4 4 4 5 8 8 7 8 7 8 9 9 10 10 11 11 11 11 11
5 5 5 6 6 6 6 6 6 5 5 5 4 4 4 4 4 4 4 4 5 5 6 5 5 5 9 10 11 13 9 9 9 9 9 10 11 11 13 13 11 12
5 5 5 5 5 5 4 4 4 4 3 4 4 4 4 4 4 4 5 5 5 5 6 6 6 9 12 12 12 13 12 10 10 9 10 10 11 12 12 12 13 12
4 4 4 4 4 4 4 3 2 3 3 3 3 5 5 5 5 5 5 6 5 6 7 7 7 9 12 13 13 14 15 13 10 10 10 11 11 12 13 13 13 12
4 3 4 3 3 4 4 4 3 4 3 4 3 4 5 6 5 7 6 6 6 7 8 7 8 10 13 14 14 16 16 14 11 12 12 13 13 13 13 14 14 13
4 4 4 4 4 3 3 3 4 3 4 3 3 4 4 4 5 5 6 5 8 8 8 9 7 12 13 14 14 16 17 14 11 11 11 12 13 13 14 15 15 14
4 4 4 5 5 5 4 4 4 4 4 4 3 4 4 4 4 4 6 6 5 7 9 10 8 10 13 14 15 15 17 11 9 11 12 12 13 14 14 14 13 13
5 5 5 5 4 4 4 4 4 4 3 3 4 4 4 5 5 5 4 5 6 6 8 10 10 10 12 15 16 16 12 9 10 10 11 13 14 14 14 14 13 13
4 4 3 3 3 3 3 3 4 3 3 4 5 7 6 5 5 6 5 5 7 9 9 10 12 12 12 12 15 16 13 10 10 11 12 13 14 14 14 13 14 18
2 2 2 2 3 3 4 4 4 4 5 5 5 6 6 5 6 7 9 8 7 9 13 12 11 13 14 13 15 16 14 9 10 11 13 13 13 15 15 14 14 14
1 1 2 3 4 4 4 4 5 5 6 6 6 5 6 7 6 7 10 11 9 9 10 10 11 12 14 19 17 18 18 13 10 11 13 14 14 14 15 15 15 15
Wind_Direction
185 180 194 200 214 226 246 257 270 272 278 287 282 284 287 292 288 274 279 276 268 269 275 272 267 265 264 266 267 266 266 263 249 220 218 225 232 233 240 241 237 239
163 172 179 192 211 198 237 299 294 288 289 281 291 305 307 320 324 306 293 293 291 279 273 275 280 282 279 273 270 269 271 272 272 269 242 242 247 238 242 244 244 242
137 152 166 181 170 107 78 74 277 292 286 313 319 303 306 319 303 300 292 291 297 300 296 284 277 270 274 280 286 284 280 280 279 285 281 265 256 252 251 249 248 247
89 73 85 104 127 146 154 167 169 219 261 280 295 318 308 300 298 289 287 278 275 281 282 283 281 282 278 277 277 273 272 271 270 267 267 267 261 260 262 258 253 249
95 110 104 106 114 115 137 129 100 48 17 345 327 316 309 315 304 309 310 318 311 301 297 297 295 287 285 282 281 280 280 279 276 272 268 269 272 268 260 253 257 261
98 97 91 88 79 63 63 64 62 47 29 8 6 349 345 333 318 323 327 326 326 317 308 305 298 292 289 289 284 278 279 277 274 276 278 275 274 270 272 265 262 261
89 81 76 75 74 59 53 44 42 39 33 17 351 342 350 337 331 332 334 339 332 318 308 301 298 297 299 295 286 281 279 282 291 289 281 275 272 271 267 268 266 266
74 70 63 62 65 57 48 41 32 33 23 0 357 3 11 347 336 340 332 328 322 314 307 303 301 300 294 289 283 282 281 283 283 281 279 275 272 270 266 262 266 267
76 65 60 59 58 50 43 35 31 31 24 10 13 6 0 359 349 338 330 323 318 310 307 302 300 298 298 293 288 283 280 279 277 278 277 277 275 271 271 268 264 260
71 62 55 50 55 50 42 37 27 30 24 19 17 12 2 360 346 338 328 317 301 291 281 282 276 270 268 264 266 269 273 275 277 275 274 273 272 273 272 268 263 266
67 60 59 54 58 53 42 38 27 30 27 23 15 13 9 358 350 343 322 310 307 300 291 283 276 274 273 269 263 255 256 262 265 267 269 273 274 275 275 269 266 260
69 68 64 60 54 49 40 33 28 27 24 28 20 10 358 355 344 330 323 308 304 300 295 289 285 277 272 271 269 269 265 264 264 265 264 265 269 268 269 267 265 266
67 63 56 49 42 35 29 29 28 24 17 17 3 350 357 350 336 317 309 304 298 301 294 293 289 283 284 285 286 285 283 278 277 275 269 267 261 261 262 264 262 264
59 54 53 42 30 27 28 27 22 21 13 360 0 352 4 346 334 333 309 298 297 292 292 297 295 291 288 289 292 295 294 287 281 281 281 276 273 268 266 264 262 260
53 51 48 47 37 39 32 22 21 15 9 4 2 2 352 348 335 329 318 310 305 298 298 295 290 288 289 298 309 303 298 298 293 288 285 284 281 277 270 267 264 260
53 48 45 39 34 29 23 14 11 5 357 357 356 355 342 338 332 321 315 311 316 314 309 300 288 285 285 286 283 286 296 291 289 284 283 280 281 281 276 268 264 262
44 36 35 35 32 23 16 9 3 352 342 340 340 331 321 321 309 308 314 312 304 304 302 301 294 290 297 297 297 295 292 290 285 284 280 279 277 278 279 278 273 266
38 33 36 34 31 17 4 351 337 330 325 324 316 319 320 310 308 311 307 304 298 292 291 291 295 291 292 294 293 293 291 289 288 283 280 276 276 276 277 279 279 278
35 33 33 32 21 6 347 326 321 317 333 330 321 318 307 317 315 307 305 305 302 304 300 294 291 295 296 298 299 297 295 293 287 283 281 280 278 276 277 278 279 280
37 37 29 20 4 350 335 335 338 337 338 318 311 317 320 316 314 308 307 309 308 300 295 293 291 296 294 293 294 293 292 290 283 283 280 278 277 276 277 278 277 280
38 33 19 8 356 351 344 337 340 335 325 320 322 320 313 311 307 310 303 298 295 292 290 289 283 282 285 289 291 291 290 289 283 281 280 278 277 274 274 275 277 278
33 22 10 1 352 351 343 340 333 322 313 311 313 301 291 287 293 285 290 289 288 293 295 293 292 286 291 292 292 292 293 290 282 280 281 280 279 277 274 274 276 276
27 17 3 354 349 342 333 331 325 312 305 314 305 296 297 297 290 288 285 292 298 299 300 297 295 292 291 293 295 295 295 292 291 285 281 283 282 282 278 278 277 274
25 16 353 341 336 332 326 321 314 312 324 328 320 320 314 306 301 305 306 300 306 306 303 304 302 302 299 293 296 298 296 292 292 293 289 287 288 285 285 283 279 276
24 8 342 335 326 333 332 327 327 329 331 328 325 312 302 307 324 317 316 311 306 304 306 305 303 306 308 308 304 302 302 296 294 293 293 291 295 295 293 292 290 285
6 8 347 345 339 338 336 337 331 337 339 330 324 318 319 323 319 315 311 308 308 312 309 308 309 309 311 311 312 311 310 308 302 299 297 298 298 296 296 294 293 292